This is the latest recevied weather packets stored in our database for station/object SQ8NA-15. If no packets are shown the sender has not sent any weather packets the latest 10 day(s).
| Time | Temp. | Humidity | Pressure | Rain* | Wind** | Luminosity | Snow |
|---|---|---|---|---|---|---|---|
| 1787446161 | 11.67° C | 92% | 981.8 hPa | 0 mm | - | 0 W/m² | - |
| 1787445537 | 12.22° C | 91% | 981.7 hPa | 0 mm | - | 0 W/m² | - |
| 1787444296 | 12.22° C | 91% | 981.6 hPa | 0 mm | - | 0 W/m² | - |
| 1787443696 | 12.22° C | 91% | 981.6 hPa | 0 mm | - | 0 W/m² | - |
| 1787443086 | 12.22° C | 90% | 981.5 hPa | 0 mm | - | 0 W/m² | - |
| 1787441861 | 12.78° C | 88% | 981.3 hPa | 0 mm | - | 0 W/m² | - |
| 1787441261 | 12.78° C | 87% | 981.2 hPa | 0 mm | - | 0 W/m² | - |
| 1787440647 | 12.78° C | 88% | 981.1 hPa | 0 mm | - | 0 W/m² | - |
| 1787439423 | 12.78° C | 89% | 980.9 hPa | 0 mm | - | 0 W/m² | - |
| 1787438811 | 12.78° C | 88% | 981 hPa | 0 mm | - | 0 W/m² | - |
| 1787438197 | 13.33° C | 87% | 980.8 hPa | 0 mm | - | 0 W/m² | - |
| 1787436986 | 13.33° C | 87% | 980.8 hPa | 0 mm | - | 0 W/m² | - |
| 1787436373 | 13.33° C | 86% | 980.6 hPa | 0 mm | - | 0 W/m² | - |
| 1787435760 | 13.33° C | 84% | 980.5 hPa | 0 mm | - | 0 W/m² | - |
| 1787434534 | 12.78° C | 86% | 980.3 hPa | 0 mm | - | 0 W/m² | - |
| 1787433923 | 13.33° C | 84% | 980.2 hPa | 0 mm | - | 0 W/m² | - |
| 1787433311 | 13.89° C | 82% | 980 hPa | 0 mm | - | 0 W/m² | - |
| 1787432073 | 13.89° C | 80% | 980 hPa | 0 mm | - | 0 W/m² | - |
| 1787431471 | 14.44° C | 80% | 979.9 hPa | 0 mm | - | 0 W/m² | - |
| 1787430861 | 14.44° C | 79% | 979.9 hPa | 0 mm | - | 0 W/m² | - |
| 1787429636 | 14.44° C | 78% | 979.6 hPa | 0 mm | - | 0 W/m² | - |
| 1787429021 | 15° C | 77% | 979.6 hPa | 0 mm | - | 0 W/m² | - |
| 1787428413 | 15° C | 75% | 979.6 hPa | 0 mm | - | 0 W/m² | - |
| 1787427196 | 15.56° C | 75% | 979.3 hPa | 0 mm | - | 0 W/m² | - |
| 1787426587 | 15.56° C | 75% | 979.1 hPa | 0 mm | - | 0 W/m² | - |
* Rain latest hour (hover to see other rain measurements)
** Current wind speed in m/s (hover to see current wind gust speed)